Weather History for Vernal, UT

Change the Weather History Date:

Tuesday, February 12, 2013

  Actual Average Record
Temperature  
Mean Temperature 9 °F 24 °F  
Max Temperature 20 °F 34 °F 57 °F (1954)
Min Temperature -2 °F 15 °F -16 °F (1933)
Degree Days  
Heating Degree Days 56 40  
Month to date heating degree days 588 509  
Since 1 July heating degree days 5147 4904  
Cooling Degree Days 0 0  
Month to date cooling degree days 0 0  
Year to date cooling degree days 0 0  
Moisture  
Dew Point 5 °F    
Average Humidity 80    
Maximum Humidity 92    
Minimum Humidity 67    
Precipitation  
Precipitation T in 0.02 in 0.70 in (1935)
Month to date precipitation 0.13 0.20  
Year to date precipitation 1.00 0.70  
Sea Level Pressure  
Sea Level Pressure 30.39 in    
Wind  
Wind Speed 2 mph (WSW)    
Max Wind Speed 7 mph    
Max Gust Speed 8 mph    
Visibility 6 miles    
Events Snow    
T = Trace of Precipitation, MM = Missing Value Source: NWS Daily Summary

Daily Weather History Graph

Daily Weather History Graph

Search for Another Location

Airport:

Trip Planner

Search our weather history database for the weather conditions in past years. The results will help you decide how hot, cold, wet, or windy it might be!

Date:

Astronomy

Feb. 12, 2013 Rise Set
Actual Time 7:14 AM MST 5:50 PM MST
Civil Twilight 6:46 AM MST 6:18 PM MST
Nautical Twilight 6:14 AM MST 6:50 PM MST
Astronomical Twilight 5:43 AM MST 7:21 PM MST
Moon 8:13 AM MST (2/12) 8:55 PM MST (2/12)
Length of Visible Light 11h 31m
Length of Day
10h 35m
Waxing Crescent, 8% of the Moon is Illuminated
Feb 12
Waxing Crescent
Feb 17
First Quarter
Feb 25
Full
Mar 4
Last Quarter
Mar 11
New

Hourly Weather History & Observations

Time (MST) Temp. Windchill Dew Point Humidity Pressure Visibility Wind Dir Wind Speed Gust Speed Precip Events Conditions
12:53 AM 9.0 °F - 3.9 °F 80% 30.36 in 10.0 mi Calm Calm - N/A   Overcast
1:53 AM 6.1 °F - 1.0 °F 80% 30.38 in 9.0 mi Calm Calm - N/A   Mostly Cloudy
2:53 AM 3.0 °F - -0.9 °F 84% 30.40 in 5.0 mi Calm Calm - N/A   Clear
3:30 AM 1.4 °F -6.2 °F -2.2 °F 85% 30.19 in 10.0 mi West 3.5 mph - N/A   Scattered Clouds
3:53 AM 1.0 °F -6.7 °F -4.0 °F 79% 30.42 in 10.0 mi West 3.5 mph - N/A   Partly Cloudy
4:30 AM 1.4 °F - -4.0 °F 78% 30.20 in 9.0 mi Calm Calm - N/A   Mostly Cloudy
4:53 AM 1.0 °F - -2.9 °F 83% 30.44 in 7.0 mi Calm Calm - N/A   Overcast
5:53 AM 3.0 °F -4.4 °F -0.9 °F 84% 30.46 in 6.0 mi WSW 3.5 mph - N/A   Overcast
6:53 AM 3.9 °F -5.3 °F -0.0 °F 84% 30.49 in 6.0 mi West 4.6 mph - N/A   Overcast
7:43 AM 5.0 °F -4.1 °F 1.4 °F 85% 30.25 in 2.5 mi West 4.6 mph - 0.00 in Snow Light Snow
7:53 AM 5.0 °F -2.1 °F 3.0 °F 92% 30.50 in 1.8 mi West 3.5 mph - 0.00 in Snow Light Snow
8:00 AM 5.0 °F -4.1 °F 3.2 °F 92% 30.25 in 1.2 mi West 4.6 mph - 0.00 in Snow Light Snow
8:15 AM 6.8 °F -0.1 °F 3.2 °F 85% 30.26 in 0.8 mi West 3.5 mph - 0.00 in Snow Light Snow
8:51 AM 8.6 °F - 6.8 °F 92% 30.26 in 1.0 mi Calm Calm - 0.00 in Snow Light Snow
8:53 AM 8.1 °F - 7.0 °F 95% 30.49 in 1.0 mi Calm Calm - 0.00 in Snow Light Snow
9:00 AM 8.6 °F - 6.8 °F 92% 30.26 in 0.8 mi Calm Calm - 0.00 in Snow Light Snow
9:07 AM 8.6 °F 2.0 °F 6.8 °F 92% 30.26 in 1.0 mi West 3.5 mph - 0.00 in Snow Light Snow
9:41 AM 10.4 °F - 8.6 °F 92% 30.27 in 1.8 mi Calm Calm - 0.00 in Snow Light Snow
9:53 AM 10.0 °F - 9.0 °F 95% 30.52 in 1.8 mi Calm Calm - 0.00 in   Overcast
10:00 AM 10.4 °F - 8.6 °F 92% 30.27 in 2.0 mi Calm Calm - N/A   Overcast
10:48 AM 10.4 °F - 8.6 °F 92% 30.27 in 4.0 mi Calm Calm - 0.00 in   Overcast
10:53 AM 10.9 °F - 8.1 °F 88% 30.51 in 5.0 mi Calm Calm - 0.00 in   Overcast
11:46 AM 14.0 °F - 8.6 °F 79% 30.26 in 7.0 mi Calm Calm - N/A   Scattered Clouds
11:53 AM 12.9 °F 6.9 °F 9.0 °F 84% 30.49 in 8.0 mi South 3.5 mph - N/A   Partly Cloudy
12:53 PM 16.0 °F - 9.0 °F 74% 30.45 in 10.0 mi Calm Calm - N/A   Clear
1:53 PM 16.0 °F 10.4 °F 10.0 °F 77% 30.43 in 10.0 mi South 3.5 mph - N/A   Clear
2:53 PM 19.0 °F - 10.0 °F 68% 30.43 in 10.0 mi Calm Calm - N/A   Clear
3:53 PM 18.0 °F 9.8 °F 10.0 °F 71% 30.43 in 10.0 mi East 5.8 mph - N/A   Clear
4:53 PM 16.0 °F 10.4 °F 9.0 °F 74% 30.45 in 10.0 mi East 3.5 mph - N/A   Clear
5:53 PM 12.9 °F 6.9 °F 7.0 °F 77% 30.46 in 9.0 mi South 3.5 mph - N/A   Clear
6:53 PM 10.9 °F - 6.1 °F 81% 30.47 in 8.0 mi Calm Calm - N/A   Clear
7:53 PM 6.1 °F - 1.9 °F 83% 30.49 in 6.0 mi Calm Calm - N/A   Clear
8:53 PM 8.1 °F -0.5 °F 3.9 °F 83% 30.48 in 7.0 mi ENE 4.6 mph - N/A   Mostly Cloudy
9:53 PM 7.0 °F - 3.9 °F 87% 30.50 in 8.0 mi Calm Calm - N/A   Overcast
10:53 PM 10.0 °F - 6.1 °F 84% 30.48 in 8.0 mi Calm Calm - N/A   Overcast
11:53 PM 10.9 °F - 6.1 °F 81% 30.48 in 8.0 mi Calm Calm - N/A   Overcast